{"data":{"norad_id":46495,"intl_designator":"2020-068K","name":"SALSAT","alt_names":[],"object_type":"PAYLOAD","status":"ACTIVE","operator":null,"country":"GER","launch_date":"2020-09-28","launch_site_code":"PLMSC","launch_vehicle":null,"mission":null,"orbit_class":"UNKNOWN","rcs_meters":null,"size_class":null,"mass_kg":null,"dimensions":null,"purposes":["comms","science","tech_demo"],"wikipedia_slug":null,"has_3d_model":false,"image_url":null,"decayed_at":null,"tle_current":{"epoch":"2026-05-24T23:42:20.888928Z","epoch_age_seconds":82916,"freshness":"FRESH","line1":"1 46495U 20068K   26144.98774177  .00007014  00000+0  24856-3 0  9990","line2":"2 46495  97.8855 146.6473 0010594  33.8053 326.3859 15.29404891311817","mean_motion":15.29404891,"eccentricity":0.0010594,"inclination_deg":97.8855,"raan_deg":146.6473,"arg_perigee_deg":33.8053,"mean_anomaly_deg":326.3859,"bstar":0.00024856,"rev_number":31181,"period_min":94.154269315724,"perigee_km":470.32719269292,"apogee_km":484.85310737841,"semimajor_km":6855.7271500357,"source":"CELESTRAK","updated_at":"2026-05-25T13:38:25.048079Z"}}}